owner,sensor,date,latitude,longitude,relative_humidity,qcFlag 
COMPS,ioos:station:USF.COMPS:C12:1,2014-03-01T00:05:00Z,27.4980,-83.7220,55.05,1111122 
COMPS,ioos:station:USF.COMPS:C12:1,2014-03-01T00:35:00Z,27.4980,-83.7220,56.46,1111122 
COMPS,ioos:station:USF.COMPS:C12:1,2014-03-01T01:05:00Z,27.4980,-83.7220,58.68,1111122 
COMPS,ioos:station:USF.COMPS:C12:1,2014-03-01T01:35:00Z,27.4980,-83.7220,57.45,1111122 
COMPS,ioos:station:USF.COMPS:C12:1,2014-03-01T02:05:00Z,27.4980,-83.7220,59.87,1111122 
COMPS,ioos:station:USF.COMPS:C12:1,2014-03-01T02:35:00Z,27.4980,-83.7220,56.77,1111122 
COMPS,ioos:station:USF.COMPS:C12:1,2014-03-01T03:05:00Z,27.4980,-83.7220,56.21,1111122 
COMPS,ioos:station:USF.COMPS:C12:1,2014-03-01T03:35:00Z,27.4980,-83.7220,56.26,1111122 
COMPS,ioos:station:USF.COMPS:C12:1,2014-03-01T04:05:00Z,27.4980,-83.7220,57.44,1111122 
COMPS,ioos:station:USF.COMPS:C12:1,2014-03-01T04:35:00Z,27.4980,-83.7220,56.81,1111122 
COMPS,ioos:station:USF.COMPS:C12:1,2014-03-01T05:05:00Z,27.4980,-83.7220,55.58,1111122 
COMPS,ioos:station:USF.COMPS:C12:1,2014-03-01T05:35:00Z,27.4980,-83.7220,59.18,1111122 
COMPS,ioos:station:USF.COMPS:C12:1,2014-03-01T06:05:00Z,27.4980,-83.7220,62.02,1111122 
COMPS,ioos:station:USF.COMPS:C12:1,2014-03-01T06:35:00Z,27.4980,-83.7220,62.83,1111122 
COMPS,ioos:station:USF.COMPS:C12:1,2014-03-01T07:05:00Z,27.4980,-83.7220,68.15,1111122 
COMPS,ioos:station:USF.COMPS:C12:1,2014-03-01T07:35:00Z,27.4980,-83.7220,71.35,1111122 
COMPS,ioos:station:USF.COMPS:C12:1,2014-03-01T08:05:00Z,27.4980,-83.7220,72.93,1111122 
COMPS,ioos:station:USF.COMPS:C12:1,2014-03-01T08:35:00Z,27.4980,-83.7220,74.11,1111122 
COMPS,ioos:station:USF.COMPS:C12:1,2014-03-01T09:05:00Z,27.4980,-83.7220,74.84,1111122 
COMPS,ioos:station:USF.COMPS:C12:1,2014-03-01T09:35:00Z,27.4980,-83.7220,75.0,1111122 
COMPS,ioos:station:USF.COMPS:C12:1,2014-03-01T10:05:00Z,27.4980,-83.7220,70.01,1111122 
COMPS,ioos:station:USF.COMPS:C12:1,2014-03-01T10:35:00Z,27.4980,-83.7220,69.37,1111122 
COMPS,ioos:station:USF.COMPS:C12:1,2014-03-01T11:05:00Z,27.4980,-83.7220,68.39,1111122 
COMPS,ioos:station:USF.COMPS:C12:1,2014-03-01T11:35:00Z,27.4980,-83.7220,72.19,1111122 
COMPS,ioos:station:USF.COMPS:C12:1,2014-03-01T12:05:00Z,27.4980,-83.7220,73.24,1111122 
COMPS,ioos:station:USF.COMPS:C12:1,2014-03-01T12:35:00Z,27.4980,-83.7220,70.5,1111122 
COMPS,ioos:station:USF.COMPS:C12:1,2014-03-01T13:05:00Z,27.4980,-83.7220,65.69,1111122 
COMPS,ioos:station:USF.COMPS:C12:1,2014-03-01T13:35:00Z,27.4980,-83.7220,63.35,1111122 
COMPS,ioos:station:USF.COMPS:C12:1,2014-03-01T14:05:00Z,27.4980,-83.7220,62.6,1111122 
COMPS,ioos:station:USF.COMPS:C12:1,2014-03-01T14:35:00Z,27.4980,-83.7220,63.16,1111122 
COMPS,ioos:station:USF.COMPS:C12:1,2014-03-01T15:05:00Z,27.4980,-83.7220,62.91,1111122 
COMPS,ioos:station:USF.COMPS:C12:1,2014-03-01T15:35:00Z,27.4980,-83.7220,64.27,1111122 
COMPS,ioos:station:USF.COMPS:C12:1,2014-03-01T16:05:00Z,27.4980,-83.7220,64.47,1111122 
COMPS,ioos:station:USF.COMPS:C12:1,2014-03-01T16:35:00Z,27.4980,-83.7220,66.92,1111122 
COMPS,ioos:station:USF.COMPS:C12:1,2014-03-01T17:05:00Z,27.4980,-83.7220,67.16,1111122 
COMPS,ioos:station:USF.COMPS:C12:1,2014-03-01T17:35:00Z,27.4980,-83.7220,73.63,1111122 
COMPS,ioos:station:USF.COMPS:C12:1,2014-03-01T18:05:00Z,27.4980,-83.7220,73.22,1111122 
COMPS,ioos:station:USF.COMPS:C12:1,2014-03-01T18:35:00Z,27.4980,-83.7220,77.05,1111122 
COMPS,ioos:station:USF.COMPS:C12:1,2014-03-01T19:05:00Z,27.4980,-83.7220,77.59,1111122 
COMPS,ioos:station:USF.COMPS:C12:1,2014-03-01T19:35:00Z,27.4980,-83.7220,80.58,1111122 
COMPS,ioos:station:USF.COMPS:C12:1,2014-03-01T20:05:00Z,27.4980,-83.7220,78.67,1111122 
COMPS,ioos:station:USF.COMPS:C12:1,2014-03-01T20:35:00Z,27.4980,-83.7220,79.25,1111122 
COMPS,ioos:station:USF.COMPS:C12:1,2014-03-01T21:05:00Z,27.4980,-83.7220,79.34,1111122 
COMPS,ioos:station:USF.COMPS:C12:1,2014-03-01T21:35:00Z,27.4980,-83.7220,79.63,1111122 
COMPS,ioos:station:USF.COMPS:C12:1,2014-03-01T22:05:00Z,27.4980,-83.7220,78.95,1111122 
COMPS,ioos:station:USF.COMPS:C12:1,2014-03-01T22:35:00Z,27.4980,-83.7220,77.69,1111122 
COMPS,ioos:station:USF.COMPS:C12:1,2014-03-01T23:05:00Z,27.4980,-83.7220,78.0,1111122 
COMPS,ioos:station:USF.COMPS:C12:1,2014-03-01T23:35:00Z,27.4980,-83.7220,75.43,1111122 
COMPS,ioos:station:USF.COMPS:C12:1,2014-03-02T00:05:00Z,27.4980,-83.7220,72.21,1111122 
COMPS,ioos:station:USF.COMPS:C12:1,2014-03-02T00:35:00Z,27.4980,-83.7220,67.97,1111122 
COMPS,ioos:station:USF.COMPS:C12:1,2014-03-02T01:05:00Z,27.4980,-83.7220,68.05,1111122 
COMPS,ioos:station:USF.COMPS:C12:1,2014-03-02T01:35:00Z,27.4980,-83.7220,67.45,1111122 
COMPS,ioos:station:USF.COMPS:C12:1,2014-03-02T02:05:00Z,27.4980,-83.7220,64.05,1111122 
COMPS,ioos:station:USF.COMPS:C12:1,2014-03-02T02:35:00Z,27.4980,-83.7220,60.03,1111122 
COMPS,ioos:station:USF.COMPS:C12:1,2014-03-02T03:05:00Z,27.4980,-83.7220,62.63,1111122 
COMPS,ioos:station:USF.COMPS:C12:1,2014-03-02T03:35:00Z,27.4980,-83.7220,63.15,1111122 
COMPS,ioos:station:USF.COMPS:C12:1,2014-03-02T04:05:00Z,27.4980,-83.7220,65.23,1111122 
COMPS,ioos:station:USF.COMPS:C12:1,2014-03-02T04:35:00Z,27.4980,-83.7220,63.19,1111122 
COMPS,ioos:station:USF.COMPS:C12:1,2014-03-02T05:05:00Z,27.4980,-83.7220,64.06,1111122 
COMPS,ioos:station:USF.COMPS:C12:1,2014-03-02T05:35:00Z,27.4980,-83.7220,63.38,1111122 
COMPS,ioos:station:USF.COMPS:C12:1,2014-03-02T06:05:00Z,27.4980,-83.7220,65.28,1111122 
COMPS,ioos:station:USF.COMPS:C12:1,2014-03-02T06:35:00Z,27.4980,-83.7220,68.0,1111122 
COMPS,ioos:station:USF.COMPS:C12:1,2014-03-02T07:05:00Z,27.4980,-83.7220,71.31,1111122 
COMPS,ioos:station:USF.COMPS:C12:1,2014-03-02T07:35:00Z,27.4980,-83.7220,76.36,1111122 
COMPS,ioos:station:USF.COMPS:C12:1,2014-03-02T08:05:00Z,27.4980,-83.7220,79.1,1111122 
COMPS,ioos:station:USF.COMPS:C12:1,2014-03-02T08:35:00Z,27.4980,-83.7220,83.98,1111122 
COMPS,ioos:station:USF.COMPS:C12:1,2014-03-02T09:05:00Z,27.4980,-83.7220,85.34,1111122 
COMPS,ioos:station:USF.COMPS:C12:1,2014-03-02T09:35:00Z,27.4980,-83.7220,85.71,1111122 
COMPS,ioos:station:USF.COMPS:C12:1,2014-03-02T10:05:00Z,27.4980,-83.7220,83.72,1111122 
COMPS,ioos:station:USF.COMPS:C12:1,2014-03-02T10:35:00Z,27.4980,-83.7220,83.13,1111122 
COMPS,ioos:station:USF.COMPS:C12:1,2014-03-02T11:05:00Z,27.4980,-83.7220,84.55,1111122 
COMPS,ioos:station:USF.COMPS:C12:1,2014-03-02T11:35:00Z,27.4980,-83.7220,85.32,1111122 
COMPS,ioos:station:USF.COMPS:C12:1,2014-03-02T12:05:00Z,27.4980,-83.7220,87.05,1111122 
COMPS,ioos:station:USF.COMPS:C12:1,2014-03-02T12:35:00Z,27.4980,-83.7220,86.78,1111122 
COMPS,ioos:station:USF.COMPS:C12:1,2014-03-02T13:05:00Z,27.4980,-83.7220,86.0,1111122 
COMPS,ioos:station:USF.COMPS:C12:1,2014-03-02T13:35:00Z,27.4980,-83.7220,86.12,1111122 
COMPS,ioos:station:USF.COMPS:C12:1,2014-03-02T14:05:00Z,27.4980,-83.7220,86.31,1111122 
COMPS,ioos:station:USF.COMPS:C12:1,2014-03-02T14:35:00Z,27.4980,-83.7220,86.42,1111122 
COMPS,ioos:station:USF.COMPS:C12:1,2014-03-02T15:05:00Z,27.4980,-83.7220,87.38,1111122 
COMPS,ioos:station:USF.COMPS:C12:1,2014-03-02T15:35:00Z,27.4980,-83.7220,87.44,1111122 
COMPS,ioos:station:USF.COMPS:C12:1,2014-03-02T16:05:00Z,27.4980,-83.7220,87.44,1111122 
COMPS,ioos:station:USF.COMPS:C12:1,2014-03-02T16:35:00Z,27.4980,-83.7220,86.97,1111122 
COMPS,ioos:station:USF.COMPS:C12:1,2014-03-02T17:05:00Z,27.4980,-83.7220,86.84,1111122 
COMPS,ioos:station:USF.COMPS:C12:1,2014-03-02T17:35:00Z,27.4980,-83.7220,86.43,1111122 
COMPS,ioos:station:USF.COMPS:C12:1,2014-03-02T18:05:00Z,27.4980,-83.7220,86.2,1111122 
COMPS,ioos:station:USF.COMPS:C12:1,2014-03-02T18:35:00Z,27.4980,-83.7220,86.12,1111122 
COMPS,ioos:station:USF.COMPS:C12:1,2014-03-02T19:05:00Z,27.4980,-83.7220,85.97,1111122 
COMPS,ioos:station:USF.COMPS:C12:1,2014-03-02T19:35:00Z,27.4980,-83.7220,85.81,1111122 
COMPS,ioos:station:USF.COMPS:C12:1,2014-03-02T20:05:00Z,27.4980,-83.7220,84.12,1111122 
COMPS,ioos:station:USF.COMPS:C12:1,2014-03-02T20:35:00Z,27.4980,-83.7220,84.06,1111122 
COMPS,ioos:station:USF.COMPS:C12:1,2014-03-02T21:05:00Z,27.4980,-83.7220,83.64,1111122 
COMPS,ioos:station:USF.COMPS:C12:1,2014-03-02T21:35:00Z,27.4980,-83.7220,82.22,1111122 
COMPS,ioos:station:USF.COMPS:C12:1,2014-03-02T22:05:00Z,27.4980,-83.7220,81.43,1111122 
COMPS,ioos:station:USF.COMPS:C12:1,2014-03-02T22:35:00Z,27.4980,-83.7220,81.43,1111122 
COMPS,ioos:station:USF.COMPS:C12:1,2014-03-02T23:05:00Z,27.4980,-83.7220,81.47,1111122 
COMPS,ioos:station:USF.COMPS:C12:1,2014-03-02T23:35:00Z,27.4980,-83.7220,84.2,1111122 
COMPS,ioos:station:USF.COMPS:C12:1,2014-03-03T00:05:00Z,27.4980,-83.7220,85.9,1111122 
COMPS,ioos:station:USF.COMPS:C12:1,2014-03-03T00:35:00Z,27.4980,-83.7220,86.04,1111122 
COMPS,ioos:station:USF.COMPS:C12:1,2014-03-03T01:05:00Z,27.4980,-83.7220,85.94,1111122 
COMPS,ioos:station:USF.COMPS:C12:1,2014-03-03T01:35:00Z,27.4980,-83.7220,86.28,1111122 
COMPS,ioos:station:USF.COMPS:C12:1,2014-03-03T02:05:00Z,27.4980,-83.7220,86.63,1111122 
COMPS,ioos:station:USF.COMPS:C12:1,2014-03-03T02:35:00Z,27.4980,-83.7220,86.8,1111122 
COMPS,ioos:station:USF.COMPS:C12:1,2014-03-03T03:05:00Z,27.4980,-83.7220,87.13,1111122 
COMPS,ioos:station:USF.COMPS:C12:1,2014-03-03T03:35:00Z,27.4980,-83.7220,87.69,1111122 
COMPS,ioos:station:USF.COMPS:C12:1,2014-03-03T04:05:00Z,27.4980,-83.7220,88.31,1111122 
COMPS,ioos:station:USF.COMPS:C12:1,2014-03-03T04:35:00Z,27.4980,-83.7220,88.83,1111122 
COMPS,ioos:station:USF.COMPS:C12:1,2014-03-03T05:05:00Z,27.4980,-83.7220,89.89,1111122 
COMPS,ioos:station:USF.COMPS:C12:1,2014-03-03T05:35:00Z,27.4980,-83.7220,90.07,1111122 
COMPS,ioos:station:USF.COMPS:C12:1,2014-03-03T06:05:00Z,27.4980,-83.7220,91.22,1111122 
COMPS,ioos:station:USF.COMPS:C12:1,2014-03-03T06:35:00Z,27.4980,-83.7220,92.01,1111122 
COMPS,ioos:station:USF.COMPS:C12:1,2014-03-03T10:05:00Z,27.4980,-83.7220,89.94,1111122 
COMPS,ioos:station:USF.COMPS:C12:1,2014-03-03T10:35:00Z,27.4980,-83.7220,90.61,1111122 
COMPS,ioos:station:USF.COMPS:C12:1,2014-03-03T11:05:00Z,27.4980,-83.7220,89.75,1111122 
COMPS,ioos:station:USF.COMPS:C12:1,2014-03-03T11:35:00Z,27.4980,-83.7220,90.76,1111122 
COMPS,ioos:station:USF.COMPS:C12:1,2014-03-03T12:05:00Z,27.4980,-83.7220,92.0,1111122 
COMPS,ioos:station:USF.COMPS:C12:1,2014-03-03T12:35:00Z,27.4980,-83.7220,90.49,1111122 
COMPS,ioos:station:USF.COMPS:C12:1,2014-03-03T13:05:00Z,27.4980,-83.7220,89.51,1111122 
COMPS,ioos:station:USF.COMPS:C12:1,2014-03-03T13:35:00Z,27.4980,-83.7220,89.84,1111122 
COMPS,ioos:station:USF.COMPS:C12:1,2014-03-03T14:05:00Z,27.4980,-83.7220,90.32,1111122 
COMPS,ioos:station:USF.COMPS:C12:1,2014-03-03T14:35:00Z,27.4980,-83.7220,90.64,1111122 
COMPS,ioos:station:USF.COMPS:C12:1,2014-03-03T15:05:00Z,27.4980,-83.7220,92.32,1111122 
COMPS,ioos:station:USF.COMPS:C12:1,2014-03-03T15:35:00Z,27.4980,-83.7220,92.72,1111122 
COMPS,ioos:station:USF.COMPS:C12:1,2014-03-03T16:05:00Z,27.4980,-83.7220,92.78,1111122 
COMPS,ioos:station:USF.COMPS:C12:1,2014-03-03T16:35:00Z,27.4980,-83.7220,92.08,1111122 
COMPS,ioos:station:USF.COMPS:C12:1,2014-03-03T17:05:00Z,27.4980,-83.7220,90.58,1111122 
COMPS,ioos:station:USF.COMPS:C12:1,2014-03-03T17:35:00Z,27.4980,-83.7220,94.04,1111122 
COMPS,ioos:station:USF.COMPS:C12:1,2014-03-03T18:05:00Z,27.4980,-83.7220,94.32,1111122 
COMPS,ioos:station:USF.COMPS:C12:1,2014-03-03T18:35:00Z,27.4980,-83.7220,93.07,1111122 
COMPS,ioos:station:USF.COMPS:C12:1,2014-03-03T19:05:00Z,27.4980,-83.7220,87.43,1111122 
COMPS,ioos:station:USF.COMPS:C12:1,2014-03-03T19:35:00Z,27.4980,-83.7220,87.49,1111122 
COMPS,ioos:station:USF.COMPS:C12:1,2014-03-03T20:05:00Z,27.4980,-83.7220,86.54,1111122 
COMPS,ioos:station:USF.COMPS:C12:1,2014-03-03T20:35:00Z,27.4980,-83.7220,85.96,1111122 
COMPS,ioos:station:USF.COMPS:C12:1,2014-03-03T21:05:00Z,27.4980,-83.7220,85.81,1111122 
COMPS,ioos:station:USF.COMPS:C12:1,2014-03-03T21:35:00Z,27.4980,-83.7220,86.41,1111122 
COMPS,ioos:station:USF.COMPS:C12:1,2014-03-03T22:05:00Z,27.4980,-83.7220,87.27,1111122 
COMPS,ioos:station:USF.COMPS:C12:1,2014-03-03T22:35:00Z,27.4980,-83.7220,87.45,1111122 
COMPS,ioos:station:USF.COMPS:C12:1,2014-03-03T23:05:00Z,27.4980,-83.7220,88.71,1111122 
COMPS,ioos:station:USF.COMPS:C12:1,2014-03-03T23:35:00Z,27.4980,-83.7220,90.23,1111122 
COMPS,ioos:station:USF.COMPS:C12:1,2014-03-04T00:05:00Z,27.4980,-83.7220,90.76,1111122 
COMPS,ioos:station:USF.COMPS:C12:1,2014-03-04T00:35:00Z,27.4980,-83.7220,92.01,1111122 
COMPS,ioos:station:USF.COMPS:C12:1,2014-03-04T01:05:00Z,27.4980,-83.7220,92.67,1111122 
COMPS,ioos:station:USF.COMPS:C12:1,2014-03-04T01:35:00Z,27.4980,-83.7220,92.85,1111122 
COMPS,ioos:station:USF.COMPS:C12:1,2014-03-04T02:05:00Z,27.4980,-83.7220,92.12,1111122 
COMPS,ioos:station:USF.COMPS:C12:1,2014-03-04T02:35:00Z,27.4980,-83.7220,92.56,1111122 
COMPS,ioos:station:USF.COMPS:C12:1,2014-03-04T03:05:00Z,27.4980,-83.7220,92.96,1111122 
COMPS,ioos:station:USF.COMPS:C12:1,2014-03-04T03:35:00Z,27.4980,-83.7220,93.59,1111122 
COMPS,ioos:station:USF.COMPS:C12:1,2014-03-04T04:05:00Z,27.4980,-83.7220,94.4,1111122 
COMPS,ioos:station:USF.COMPS:C12:1,2014-03-04T04:35:00Z,27.4980,-83.7220,94.83,1111122 
COMPS,ioos:station:USF.COMPS:C12:1,2014-03-04T05:05:00Z,27.4980,-83.7220,95.24,1111122 
COMPS,ioos:station:USF.COMPS:C12:1,2014-03-04T05:35:00Z,27.4980,-83.7220,95.34,1111122 
COMPS,ioos:station:USF.COMPS:C12:1,2014-03-04T06:05:00Z,27.4980,-83.7220,95.55,1111122 
COMPS,ioos:station:USF.COMPS:C12:1,2014-03-04T06:35:00Z,27.4980,-83.7220,95.84,1111122 
COMPS,ioos:station:USF.COMPS:C12:1,2014-03-04T07:05:00Z,27.4980,-83.7220,94.69,1111122 
COMPS,ioos:station:USF.COMPS:C12:1,2014-03-04T07:35:00Z,27.4980,-83.7220,94.19,1111122 
COMPS,ioos:station:USF.COMPS:C12:1,2014-03-04T08:05:00Z,27.4980,-83.7220,93.73,1111122 
COMPS,ioos:station:USF.COMPS:C12:1,2014-03-04T08:35:00Z,27.4980,-83.7220,92.44,1111122 
COMPS,ioos:station:USF.COMPS:C12:1,2014-03-04T09:05:00Z,27.4980,-83.7220,92.19,1111122 
COMPS,ioos:station:USF.COMPS:C12:1,2014-03-04T09:35:00Z,27.4980,-83.7220,91.58,1111122 
COMPS,ioos:station:USF.COMPS:C12:1,2014-03-04T10:05:00Z,27.4980,-83.7220,89.53,1111122 
COMPS,ioos:station:USF.COMPS:C12:1,2014-03-04T10:35:00Z,27.4980,-83.7220,86.66,1111122 
COMPS,ioos:station:USF.COMPS:C12:1,2014-03-04T11:05:00Z,27.4980,-83.7220,91.71,1111122 
COMPS,ioos:station:USF.COMPS:C12:1,2014-03-04T11:35:00Z,27.4980,-83.7220,92.34,1111122 
COMPS,ioos:station:USF.COMPS:C12:1,2014-03-04T12:05:00Z,27.4980,-83.7220,91.52,1111122 
COMPS,ioos:station:USF.COMPS:C12:1,2014-03-04T12:35:00Z,27.4980,-83.7220,88.84,1111122 
COMPS,ioos:station:USF.COMPS:C12:1,2014-03-04T13:05:00Z,27.4980,-83.7220,91.62,1111122 
COMPS,ioos:station:USF.COMPS:C12:1,2014-03-04T13:35:00Z,27.4980,-83.7220,89.7,1111122 
COMPS,ioos:station:USF.COMPS:C12:1,2014-03-04T14:05:00Z,27.4980,-83.7220,89.49,1111122 
COMPS,ioos:station:USF.COMPS:C12:1,2014-03-04T14:35:00Z,27.4980,-83.7220,89.77,1111122 
COMPS,ioos:station:USF.COMPS:C12:1,2014-03-04T15:05:00Z,27.4980,-83.7220,90.87,1111122 
COMPS,ioos:station:USF.COMPS:C12:1,2014-03-04T15:35:00Z,27.4980,-83.7220,92.04,1111122 
COMPS,ioos:station:USF.COMPS:C12:1,2014-03-04T16:05:00Z,27.4980,-83.7220,91.77,1111122 
COMPS,ioos:station:USF.COMPS:C12:1,2014-03-04T16:35:00Z,27.4980,-83.7220,91.17,1111122 
COMPS,ioos:station:USF.COMPS:C12:1,2014-03-04T17:05:00Z,27.4980,-83.7220,90.63,1111122 
COMPS,ioos:station:USF.COMPS:C12:1,2014-03-04T17:35:00Z,27.4980,-83.7220,90.57,1111122 
COMPS,ioos:station:USF.COMPS:C12:1,2014-03-04T18:05:00Z,27.4980,-83.7220,90.88,1111122 
COMPS,ioos:station:USF.COMPS:C12:1,2014-03-04T18:35:00Z,27.4980,-83.7220,90.51,1111122 
COMPS,ioos:station:USF.COMPS:C12:1,2014-03-04T19:05:00Z,27.4980,-83.7220,90.71,1111122 
COMPS,ioos:station:USF.COMPS:C12:1,2014-03-04T19:35:00Z,27.4980,-83.7220,92.69,1111122 
COMPS,ioos:station:USF.COMPS:C12:1,2014-03-04T20:05:00Z,27.4980,-83.7220,93.23,1111122 
COMPS,ioos:station:USF.COMPS:C12:1,2014-03-04T20:35:00Z,27.4980,-83.7220,92.95,1111122 
COMPS,ioos:station:USF.COMPS:C12:1,2014-03-04T21:05:00Z,27.4980,-83.7220,93.03,1111122 
COMPS,ioos:station:USF.COMPS:C12:1,2014-03-04T21:35:00Z,27.4980,-83.7220,92.68,1111122 
COMPS,ioos:station:USF.COMPS:C12:1,2014-03-04T22:05:00Z,27.4980,-83.7220,92.43,1111122 
COMPS,ioos:station:USF.COMPS:C12:1,2014-03-04T22:35:00Z,27.4980,-83.7220,92.78,1111122 
COMPS,ioos:station:USF.COMPS:C12:1,2014-03-04T23:05:00Z,27.4980,-83.7220,93.25,1111122 
COMPS,ioos:station:USF.COMPS:C12:1,2014-03-04T23:35:00Z,27.4980,-83.7220,94.22,1111122 
COMPS,ioos:station:USF.COMPS:C12:1,2014-03-05T00:05:00Z,27.4980,-83.7220,95.03,1111122 
COMPS,ioos:station:USF.COMPS:C12:1,2014-03-05T00:35:00Z,27.4980,-83.7220,93.28,1111122 
COMPS,ioos:station:USF.COMPS:C12:1,2014-03-05T15:05:00Z,27.4980,-83.7220,89.54,1111122 
COMPS,ioos:station:USF.COMPS:C12:1,2014-03-05T15:35:00Z,27.4980,-83.7220,90.06,1111122 
COMPS,ioos:station:USF.COMPS:C12:1,2014-03-05T16:05:00Z,27.4980,-83.7220,90.86,1111122 
COMPS,ioos:station:USF.COMPS:C12:1,2014-03-05T16:35:00Z,27.4980,-83.7220,90.93,1111122 
COMPS,ioos:station:USF.COMPS:C12:1,2014-03-05T17:05:00Z,27.4980,-83.7220,91.69,1111122 
COMPS,ioos:station:USF.COMPS:C12:1,2014-03-05T17:35:00Z,27.4980,-83.7220,91.53,1111122 
COMPS,ioos:station:USF.COMPS:C12:1,2014-03-05T18:05:00Z,27.4980,-83.7220,91.07,1111122 
COMPS,ioos:station:USF.COMPS:C12:1,2014-03-05T18:35:00Z,27.4980,-83.7220,91.3,1111122 
COMPS,ioos:station:USF.COMPS:C12:1,2014-03-05T19:05:00Z,27.4980,-83.7220,92.52,1111122 
COMPS,ioos:station:USF.COMPS:C12:1,2014-03-05T19:35:00Z,27.4980,-83.7220,92.97,1111122 
COMPS,ioos:station:USF.COMPS:C12:1,2014-03-05T20:05:00Z,27.4980,-83.7220,92.27,1111122 
COMPS,ioos:station:USF.COMPS:C12:1,2014-03-05T20:35:00Z,27.4980,-83.7220,93.12,1111122 
COMPS,ioos:station:USF.COMPS:C12:1,2014-03-05T21:05:00Z,27.4980,-83.7220,94.63,1111122 
COMPS,ioos:station:USF.COMPS:C12:1,2014-03-05T21:35:00Z,27.4980,-83.7220,95.08,1111122 
COMPS,ioos:station:USF.COMPS:C12:1,2014-03-05T22:05:00Z,27.4980,-83.7220,94.54,1111122 
COMPS,ioos:station:USF.COMPS:C12:1,2014-03-05T22:35:00Z,27.4980,-83.7220,94.94,1111122 
COMPS,ioos:station:USF.COMPS:C12:1,2014-03-05T23:05:00Z,27.4980,-83.7220,95.42,1111122 
COMPS,ioos:station:USF.COMPS:C12:1,2014-03-05T23:35:00Z,27.4980,-83.7220,94.68,1111122 
COMPS,ioos:station:USF.COMPS:C12:1,2014-03-06T00:05:00Z,27.4980,-83.7220,94.58,1111122 
COMPS,ioos:station:USF.COMPS:C12:1,2014-03-06T00:35:00Z,27.4980,-83.7220,92.74,1111122 
COMPS,ioos:station:USF.COMPS:C12:1,2014-03-06T01:05:00Z,27.4980,-83.7220,88.19,1111122 
COMPS,ioos:station:USF.COMPS:C12:1,2014-03-06T01:35:00Z,27.4980,-83.7220,88.82,1111122 
COMPS,ioos:station:USF.COMPS:C12:1,2014-03-06T02:05:00Z,27.4980,-83.7220,90.13,1111122 
COMPS,ioos:station:USF.COMPS:C12:1,2014-03-06T02:35:00Z,27.4980,-83.7220,89.67,1111122 
COMPS,ioos:station:USF.COMPS:C12:1,2014-03-06T03:05:00Z,27.4980,-83.7220,90.07,1111122 
COMPS,ioos:station:USF.COMPS:C12:1,2014-03-06T03:35:00Z,27.4980,-83.7220,91.72,1111122 
COMPS,ioos:station:USF.COMPS:C12:1,2014-03-06T04:05:00Z,27.4980,-83.7220,92.15,1111122 
COMPS,ioos:station:USF.COMPS:C12:1,2014-03-06T04:35:00Z,27.4980,-83.7220,93.45,1111122 
COMPS,ioos:station:USF.COMPS:C12:1,2014-03-06T05:05:00Z,27.4980,-83.7220,94.9,1111122 
COMPS,ioos:station:USF.COMPS:C12:1,2014-03-06T05:35:00Z,27.4980,-83.7220,93.98,1111122 
COMPS,ioos:station:USF.COMPS:C12:1,2014-03-06T06:05:00Z,27.4980,-83.7220,92.68,1111122 
COMPS,ioos:station:USF.COMPS:C12:1,2014-03-06T06:35:00Z,27.4980,-83.7220,88.27,1111122 
COMPS,ioos:station:USF.COMPS:C12:1,2014-03-06T07:05:00Z,27.4980,-83.7220,88.37,1111122 
COMPS,ioos:station:USF.COMPS:C12:1,2014-03-06T07:35:00Z,27.4980,-83.7220,89.57,1111122 
COMPS,ioos:station:USF.COMPS:C12:1,2014-03-06T08:05:00Z,27.4980,-83.7220,90.6,1111122 
COMPS,ioos:station:USF.COMPS:C12:1,2014-03-06T08:35:00Z,27.4980,-83.7220,91.5,1111122 
COMPS,ioos:station:USF.COMPS:C12:1,2014-03-06T09:05:00Z,27.4980,-83.7220,92.32,1111122 
COMPS,ioos:station:USF.COMPS:C12:1,2014-03-06T09:35:00Z,27.4980,-83.7220,92.91,1111122 
COMPS,ioos:station:USF.COMPS:C12:1,2014-03-06T10:05:00Z,27.4980,-83.7220,93.79,1111122 
COMPS,ioos:station:USF.COMPS:C12:1,2014-03-06T10:35:00Z,27.4980,-83.7220,93.93,1111122 
COMPS,ioos:station:USF.COMPS:C12:1,2014-03-06T11:05:00Z,27.4980,-83.7220,94.38,1111122 
COMPS,ioos:station:USF.COMPS:C12:1,2014-03-06T11:35:00Z,27.4980,-83.7220,95.08,1111122 
COMPS,ioos:station:USF.COMPS:C12:1,2014-03-06T12:05:00Z,27.4980,-83.7220,96.34,1111122 
COMPS,ioos:station:USF.COMPS:C12:1,2014-03-06T12:35:00Z,27.4980,-83.7220,96.95,1111122 
COMPS,ioos:station:USF.COMPS:C12:1,2014-03-06T13:05:00Z,27.4980,-83.7220,97.25,1111122 
COMPS,ioos:station:USF.COMPS:C12:1,2014-03-06T13:35:00Z,27.4980,-83.7220,97.77,1111122 
COMPS,ioos:station:USF.COMPS:C12:1,2014-03-06T14:05:00Z,27.4980,-83.7220,98.16,1111122 
COMPS,ioos:station:USF.COMPS:C12:1,2014-03-06T14:35:00Z,27.4980,-83.7220,97.77,1111122 
COMPS,ioos:station:USF.COMPS:C12:1,2014-03-06T15:05:00Z,27.4980,-83.7220,94.17,1111122 
COMPS,ioos:station:USF.COMPS:C12:1,2014-03-06T15:35:00Z,27.4980,-83.7220,98.76,1111122 
COMPS,ioos:station:USF.COMPS:C12:1,2014-03-06T16:05:00Z,27.4980,-83.7220,98.58,1111122 
COMPS,ioos:station:USF.COMPS:C12:1,2014-03-06T16:35:00Z,27.4980,-83.7220,95.95,1111122 
COMPS,ioos:station:USF.COMPS:C12:1,2014-03-06T17:05:00Z,27.4980,-83.7220,96.22,1111122 
COMPS,ioos:station:USF.COMPS:C12:1,2014-03-06T17:35:00Z,27.4980,-83.7220,95.23,1111122 
COMPS,ioos:station:USF.COMPS:C12:1,2014-03-06T18:05:00Z,27.4980,-83.7220,94.24,1111122 
COMPS,ioos:station:USF.COMPS:C12:1,2014-03-06T18:35:00Z,27.4980,-83.7220,91.55,1111122 
COMPS,ioos:station:USF.COMPS:C12:1,2014-03-06T19:05:00Z,27.4980,-83.7220,89.11,1111122 
COMPS,ioos:station:USF.COMPS:C12:1,2014-03-06T19:35:00Z,27.4980,-83.7220,88.83,1111122 
COMPS,ioos:station:USF.COMPS:C12:1,2014-03-06T20:05:00Z,27.4980,-83.7220,88.2,1111122 
COMPS,ioos:station:USF.COMPS:C12:1,2014-03-06T20:35:00Z,27.4980,-83.7220,85.65,1111122 
COMPS,ioos:station:USF.COMPS:C12:1,2014-03-06T21:05:00Z,27.4980,-83.7220,87.96,1111122 
COMPS,ioos:station:USF.COMPS:C12:1,2014-03-06T21:35:00Z,27.4980,-83.7220,88.11,1111122 
COMPS,ioos:station:USF.COMPS:C12:1,2014-03-06T22:05:00Z,27.4980,-83.7220,87.1,1111122 
COMPS,ioos:station:USF.COMPS:C12:1,2014-03-06T22:35:00Z,27.4980,-83.7220,87.78,1111122 
COMPS,ioos:station:USF.COMPS:C12:1,2014-03-06T23:05:00Z,27.4980,-83.7220,85.73,1111122 
COMPS,ioos:station:USF.COMPS:C12:1,2014-03-06T23:35:00Z,27.4980,-83.7220,87.5,1111122 
COMPS,ioos:station:USF.COMPS:C12:1,2014-03-07T00:05:00Z,27.4980,-83.7220,90.48,1111122 
COMPS,ioos:station:USF.COMPS:C12:1,2014-03-07T00:35:00Z,27.4980,-83.7220,90.05,1111122 
COMPS,ioos:station:USF.COMPS:C12:1,2014-03-07T01:05:00Z,27.4980,-83.7220,90.77,1111122 
COMPS,ioos:station:USF.COMPS:C12:1,2014-03-07T01:35:00Z,27.4980,-83.7220,91.49,1111122 
COMPS,ioos:station:USF.COMPS:C12:1,2014-03-07T02:05:00Z,27.4980,-83.7220,92.58,1111122 
COMPS,ioos:station:USF.COMPS:C12:1,2014-03-07T02:35:00Z,27.4980,-83.7220,89.31,1111122 
COMPS,ioos:station:USF.COMPS:C12:1,2014-03-07T03:05:00Z,27.4980,-83.7220,87.98,1111122 
COMPS,ioos:station:USF.COMPS:C12:1,2014-03-07T03:35:00Z,27.4980,-83.7220,82.75,1111122 
COMPS,ioos:station:USF.COMPS:C12:1,2014-03-07T04:05:00Z,27.4980,-83.7220,84.16,1111122 
COMPS,ioos:station:USF.COMPS:C12:1,2014-03-07T04:35:00Z,27.4980,-83.7220,85.4,1111122 
COMPS,ioos:station:USF.COMPS:C12:1,2014-03-07T05:05:00Z,27.4980,-83.7220,85.35,1111122 
COMPS,ioos:station:USF.COMPS:C12:1,2014-03-07T05:35:00Z,27.4980,-83.7220,86.49,1111122 
COMPS,ioos:station:USF.COMPS:C12:1,2014-03-07T06:05:00Z,27.4980,-83.7220,84.46,1111122 
COMPS,ioos:station:USF.COMPS:C12:1,2014-03-07T06:35:00Z,27.4980,-83.7220,79.8,1111122 
COMPS,ioos:station:USF.COMPS:C12:1,2014-03-07T07:05:00Z,27.4980,-83.7220,82.34,1111122 
COMPS,ioos:station:USF.COMPS:C12:1,2014-03-07T07:35:00Z,27.4980,-83.7220,83.2,1111122 
COMPS,ioos:station:USF.COMPS:C12:1,2014-03-07T08:05:00Z,27.4980,-83.7220,82.8,1111122 
COMPS,ioos:station:USF.COMPS:C12:1,2014-03-07T08:35:00Z,27.4980,-83.7220,78.41,1111122 